sat.trackr.live / text

‹ back to catalog

STARLINK-35102

NORAD 65839 · 2025-221S

PAYLOAD ACTIVE UNKNOWN

§ Identity

Operator
Country
US
Launch date
2025-09-29
Launch site
AFWTR
Launch vehicle
Mass (kg)
RCS (m²)

Purposes: comms

External: N2YO · Heavens-Above · Gunter

§ Orbital elements

Epoch: 2026-09-20T23:21:02.717568Z

Period
93.85 min
Inclination
53.1560°
Eccentricity
0.0001827
Mean motion
15.34400830 rev/d
Perigee alt
461.5 km
Apogee alt
464.0 km
Semi-major
6,840.8 km
B*
5.5587e-4
RAAN
257.6193°
Arg perigee
92.5811°
Mean anomaly
267.5401°
Rev number
5,468

§ Raw data

STARLINK-351021 65839U 25221S   26263.97294812  .00018452  00000+0  55587-3 0  99962 65839  53.1560 257.6193 0001827  92.5811 267.5401 15.34400830 54686

JSON: /api/v1/satellites/65839 · /tle

For live sub-satellite position, see the globe view (requires WebGL).

§ Visibility from observer

Set your observer location to see the next 7 days of passes ≥ 10°. The values pass through the URL so the page stays shareable.

No JS? Fill the form by hand. The geolocation button needs JavaScript.